Overview Statistics Trail Chart Weather Telemetry Raw packets
 

This is the latest recevied weather packets stored in our database for station/object 4S6DRJ-13. If no packets are shown the sender has not sent any weather packets the latest 10 day(s).

<< 114 115 116 117 118 119 120 >>
Time Temp. Humidity Pressure Rain* Wind** Luminosity Snow
1788285777 28.33° C 83% 1011.3 hPa 0 mm 1.34 m/s, 265° 0 W/m² -
1788285716 28.33° C 83% 1011.4 hPa 0 mm 1.34 m/s, 253° 0 W/m² -
1788285655 28.33° C 83% 1011.3 hPa 0 mm 2.24 m/s, 311° 0 W/m² -
1788285604 28.33° C 84% 1011.3 hPa 0 mm 2.24 m/s, 341° 0 W/m² -
1788285533 28.33° C 84% 1011.4 hPa 0 mm 0.89 m/s, 250° 0 W/m² -
1788285472 28.33° C 83% 1011.4 hPa 0 mm 0.89 m/s, 307° 0 W/m² -
1788285411 28.33° C 83% 1011.3 hPa 0 mm 0 m/s 0 W/m² -
1788285350 28.33° C 83% 1011.4 hPa 0 mm 0.45 m/s, 269° 0 W/m² -
1788285289 28.33° C 83% 1011.3 hPa 0 mm 0.89 m/s, 249° 0 W/m² -
1788285228 28.33° C 83% 1011.6 hPa 0 mm 0 m/s 0 W/m² -
1788285167 28.33° C 83% 1011.3 hPa 0 mm 0.45 m/s, 237° 0 W/m² -
1788285106 28.33° C 83% 1011.4 hPa 0 mm 0.45 m/s, 277° 0 W/m² -
1788285046 28.33° C 83% 1011.4 hPa 0 mm 0 m/s 0 W/m² -
1788284984 28.33° C 83% 1011.5 hPa 0 mm 0.45 m/s, 168° 0 W/m² -
1788284923 28.33° C 83% 1011.4 hPa 0 mm 0.45 m/s, 201° 0 W/m² -
1788284862 28.33° C 83% 1011.4 hPa 0 mm 0.89 m/s, 277° 0 W/m² -
1788284801 28.33° C 83% 1011.5 hPa 0 mm 1.34 m/s, 302° 0 W/m² -
1788284740 28.33° C 83% 1011.4 hPa 0 mm 1.79 m/s, 224° 0 W/m² -
1788284679 28.33° C 83% 1011.4 hPa 0 mm 0 m/s 0 W/m² -
1788284618 28.33° C 83% 1011.5 hPa 0 mm 0.89 m/s, 266° 0 W/m² -
1788284575 28.33° C 83% 1011.5 hPa 0 mm 0 m/s 0 W/m² -
1788284496 28.33° C 83% 1011.3 hPa 0 mm 0.45 m/s, 301° 0 W/m² -
1788284435 28.33° C 83% 1011.6 hPa 0 mm 0.45 m/s, 232° 0 W/m² -
1788284374 28.33° C 83% 1011.4 hPa 0 mm 0.89 m/s, 236° 0 W/m² -
1788284313 28.33° C 83% 1011.4 hPa 0 mm 1.34 m/s, 245° 0 W/m² -

* Rain latest hour (hover to see other rain measurements)
** Current wind speed in m/s (hover to see current wind gust speed)